Time,TemperatureF,DewpointF,PressureIn,WindDirection,WindDirectionDegrees,WindSpeedMPH,WindSpeedGustMPH,Humidity,HourlyPrecipIn,Conditions,Clouds,dailyrainin,SoftwareType,DateUTC
2013-02-28 00:00:00,38.7,38.2,29.26,WNW,288,0.0,0.0,98,0.00,,,0.79,VWS V14.01,2013-02-28 05:00:00,
2013-02-28 00:05:00,38.7,38.2,29.26,WNW,288,0.0,0.0,98,0.00,,,0.00,VWS V14.01,2013-02-28 05:05:00,
2013-02-28 00:10:00,38.5,38.0,29.26,WNW,288,0.0,0.0,98,0.00,,,0.00,VWS V14.01,2013-02-28 05:10:00,
2013-02-28 00:15:00,38.5,38.0,29.26,WNW,288,0.0,0.0,98,0.00,,,0.00,VWS V14.01,2013-02-28 05:15:00,
2013-02-28 00:20:00,38.5,38.0,29.26,WNW,288,0.0,0.0,98,0.00,,,0.00,VWS V14.01,2013-02-28 05:20:00,
2013-02-28 00:25:00,38.5,38.0,29.26,WNW,288,0.0,0.0,98,0.00,,,0.00,VWS V14.01,2013-02-28 05:25:00,
2013-02-28 00:30:00,38.5,38.0,29.26,WNW,288,0.0,0.0,98,0.00,,,0.00,VWS V14.01,2013-02-28 05:30:00,
2013-02-28 00:35:00,38.5,38.0,29.26,SW,216,0.0,0.0,98,0.00,,,0.00,VWS V14.01,2013-02-28 05:35:00,
2013-02-28 00:40:00,38.3,37.8,29.26,SW,216,0.0,0.0,98,0.00,,,0.00,VWS V14.01,2013-02-28 05:40:00,
2013-02-28 00:45:00,38.3,37.8,29.26,NNE,29,0.0,0.0,98,0.00,,,0.00,VWS V14.01,2013-02-28 05:45:00,
2013-02-28 00:50:00,38.3,37.8,29.26,WSW,251,0.0,0.0,98,0.00,,,0.00,VWS V14.01,2013-02-28 05:50:00,
2013-02-28 00:55:00,38.3,37.8,29.26,SW,226,0.0,0.0,98,0.00,,,0.00,VWS V14.01,2013-02-28 05:55:00,
2013-02-28 01:00:00,38.3,37.8,29.26,SW,226,0.0,0.0,98,0.00,,,0.00,VWS V14.01,2013-02-28 06:00:00,
2013-02-28 01:05:00,38.3,37.8,29.26,SW,226,0.0,0.0,98,0.00,,,0.00,VWS V14.01,2013-02-28 06:05:00,
2013-02-28 01:10:00,38.3,37.8,29.26,SW,226,0.0,0.0,98,0.00,,,0.00,VWS V14.01,2013-02-28 06:10:00,
2013-02-28 01:15:00,38.3,37.8,29.26,SW,229,0.0,0.0,98,0.00,,,0.00,VWS V14.01,2013-02-28 06:15:00,
2013-02-28 01:20:00,38.3,37.8,29.26,SW,229,0.0,0.0,98,0.00,,,0.00,VWS V14.01,2013-02-28 06:20:00,
2013-02-28 01:25:00,38.1,37.6,29.26,SW,229,0.0,0.0,98,0.00,,,0.00,VWS V14.01,2013-02-28 06:25:00,
2013-02-28 01:30:00,38.3,37.8,29.26,SW,229,0.0,0.0,98,0.00,,,0.00,VWS V14.01,2013-02-28 06:30:00,
2013-02-28 01:35:00,38.3,37.8,29.26,SW,229,0.0,0.0,98,0.00,,,0.00,VWS V14.01,2013-02-28 06:35:00,
2013-02-28 01:40:00,38.3,37.8,29.26,SW,229,0.0,0.0,98,0.00,,,0.00,VWS V14.01,2013-02-28 06:40:00,
2013-02-28 01:45:00,38.1,37.6,29.26,WNW,291,0.0,0.0,98,0.00,,,0.00,VWS V14.01,2013-02-28 06:45:00,
2013-02-28 01:50:00,38.1,37.6,29.26,West,272,0.0,0.0,98,0.00,,,0.00,VWS V14.01,2013-02-28 06:50:00,
2013-02-28 01:55:00,38.1,37.6,29.26,West,272,0.0,0.0,98,0.00,,,0.00,VWS V14.01,2013-02-28 06:55:00,
2013-02-28 02:00:00,38.1,37.6,29.26,West,272,0.0,0.0,98,0.00,,,0.00,VWS V14.01,2013-02-28 07:00:00,
2013-02-28 02:05:00,38.1,37.6,29.26,West,272,0.0,0.0,98,0.00,,,0.00,VWS V14.01,2013-02-28 07:05:00,
2013-02-28 02:10:00,38.1,37.6,29.26,West,275,0.0,0.0,98,0.00,,,0.00,VWS V14.01,2013-02-28 07:10:00,
2013-02-28 02:15:00,38.1,37.6,29.26,West,275,0.0,0.0,98,0.00,,,0.00,VWS V14.01,2013-02-28 07:15:00,
2013-02-28 02:20:00,38.1,37.6,29.26,West,275,0.0,0.0,98,0.00,,,0.00,VWS V14.01,2013-02-28 07:20:00,
2013-02-28 02:25:00,38.1,37.6,29.26,West,275,0.0,0.0,98,0.00,,,0.00,VWS V14.01,2013-02-28 07:25:00,
2013-02-28 02:30:00,38.1,37.6,29.26,West,275,0.0,0.0,98,0.00,,,0.00,VWS V14.01,2013-02-28 07:30:00,
2013-02-28 02:35:00,37.9,37.4,29.26,West,275,0.0,0.0,98,0.00,,,0.00,VWS V14.01,2013-02-28 07:35:00,
2013-02-28 02:40:00,37.9,37.4,29.26,West,275,0.0,0.0,98,0.00,,,0.00,VWS V14.01,2013-02-28 07:40:00,
2013-02-28 02:45:00,37.9,37.4,29.26,West,275,0.0,0.0,98,0.00,,,0.00,VWS V14.01,2013-02-28 07:45:00,
2013-02-28 02:50:00,37.9,37.4,29.26,West,275,0.0,0.0,98,0.00,,,0.00,VWS V14.01,2013-02-28 07:50:00,
2013-02-28 02:55:00,37.9,37.4,29.26,West,275,0.0,0.0,98,0.00,,,0.00,VWS V14.01,2013-02-28 07:55:00,
2013-02-28 03:00:00,37.9,37.4,29.26,West,275,0.0,0.0,98,0.00,,,0.00,VWS V14.01,2013-02-28 08:00:00,
2013-02-28 03:05:00,37.9,37.4,29.26,West,275,0.0,0.0,98,0.00,,,0.00,VWS V14.01,2013-02-28 08:05:00,
2013-02-28 03:10:00,37.9,37.4,29.26,West,275,0.0,0.0,98,0.00,,,0.00,VWS V14.01,2013-02-28 08:10:00,
2013-02-28 03:15:00,37.9,37.4,29.26,West,275,0.0,0.0,98,0.00,,,0.00,VWS V14.01,2013-02-28 08:15:00,
2013-02-28 03:20:00,37.9,37.4,29.26,West,275,0.0,0.0,98,0.00,,,0.00,VWS V14.01,2013-02-28 08:20:00,
2013-02-28 03:25:00,37.9,37.4,29.26,West,275,0.0,0.0,98,0.00,,,0.00,VWS V14.01,2013-02-28 08:25:00,
2013-02-28 03:30:00,37.9,37.4,29.26,West,275,0.0,0.0,98,0.00,,,0.00,VWS V14.01,2013-02-28 08:30:00,
2013-02-28 03:35:00,37.9,37.4,29.26,West,275,0.0,0.0,98,0.00,,,0.00,VWS V14.01,2013-02-28 08:35:00,
2013-02-28 03:40:00,37.9,37.4,29.26,West,275,0.0,0.0,98,0.00,,,0.00,VWS V14.01,2013-02-28 08:40:00,
2013-02-28 03:45:00,37.9,37.4,29.26,West,275,0.0,0.0,98,0.00,,,0.00,VWS V14.01,2013-02-28 08:45:00,
2013-02-28 03:50:00,37.8,37.2,29.26,West,275,0.0,0.0,98,0.00,,,0.00,VWS V14.01,2013-02-28 08:50:00,
2013-02-28 03:55:00,37.8,37.2,29.26,West,275,0.0,0.0,98,0.00,,,0.00,VWS V14.01,2013-02-28 08:55:00,
2013-02-28 04:00:00,37.6,37.1,29.26,West,275,0.0,0.0,98,0.00,,,0.00,VWS V14.01,2013-02-28 09:00:00,
2013-02-28 04:05:00,37.6,37.1,29.26,West,275,0.0,0.0,98,0.00,,,0.00,VWS V14.01,2013-02-28 09:05:00,
2013-02-28 04:10:00,37.6,37.1,29.26,West,275,0.0,0.0,98,0.00,,,0.00,VWS V14.01,2013-02-28 09:10:00,
2013-02-28 04:15:00,37.6,37.1,29.26,West,275,0.0,0.0,98,0.00,,,0.00,VWS V14.01,2013-02-28 09:15:00,
2013-02-28 04:20:00,37.6,37.1,29.26,West,275,0.0,0.0,98,0.00,,,0.00,VWS V14.01,2013-02-28 09:20:00,
2013-02-28 04:25:00,37.4,36.9,29.26,West,275,0.0,0.0,98,0.00,,,0.00,VWS V14.01,2013-02-28 09:25:00,
2013-02-28 04:30:00,37.4,36.9,29.26,West,275,0.0,0.0,98,0.00,,,0.00,VWS V14.01,2013-02-28 09:30:00,
2013-02-28 04:35:00,37.4,36.9,29.26,West,275,0.0,0.0,98,0.00,,,0.00,VWS V14.01,2013-02-28 09:35:00,
2013-02-28 04:40:00,37.2,36.7,29.26,West,275,0.0,0.0,98,0.00,,,0.00,VWS V14.01,2013-02-28 09:40:00,
2013-02-28 04:45:00,37.2,36.7,29.26,West,275,0.0,0.0,98,0.00,,,0.00,VWS V14.01,2013-02-28 09:45:00,
2013-02-28 04:50:00,37.0,36.5,29.26,West,275,0.0,0.0,98,0.00,,,0.00,VWS V14.01,2013-02-28 09:50:00,
2013-02-28 04:55:00,37.0,36.5,29.29,West,275,0.0,0.0,98,0.00,,,0.00,VWS V14.01,2013-02-28 09:55:00,
2013-02-28 05:00:00,37.0,36.5,29.29,West,275,0.0,0.0,98,0.00,,,0.00,VWS V14.01,2013-02-28 10:00:00,
2013-02-28 05:05:00,37.0,36.5,29.29,West,275,0.0,0.0,98,0.00,,,0.00,VWS V14.01,2013-02-28 10:05:00,
2013-02-28 05:10:00,37.2,36.7,29.29,West,275,0.0,0.0,98,0.00,,,0.00,VWS V14.01,2013-02-28 10:10:00,
2013-02-28 05:15:00,37.2,36.7,29.29,West,275,0.0,0.0,98,0.00,,,0.00,VWS V14.01,2013-02-28 10:15:00,
2013-02-28 05:20:00,37.2,36.7,29.29,West,275,0.0,0.0,98,0.00,,,0.00,VWS V14.01,2013-02-28 10:20:00,
2013-02-28 05:25:00,37.0,36.5,29.29,West,275,0.0,0.0,98,0.00,,,0.00,VWS V14.01,2013-02-28 10:25:00,
2013-02-28 05:30:00,37.0,36.5,29.29,West,275,0.0,0.0,98,0.00,,,0.00,VWS V14.01,2013-02-28 10:30:00,
2013-02-28 05:35:00,37.0,36.5,29.29,West,275,0.0,0.0,98,0.00,,,0.00,VWS V14.01,2013-02-28 10:35:00,
2013-02-28 05:40:00,37.0,36.5,29.29,West,275,0.0,0.0,98,0.00,,,0.00,VWS V14.01,2013-02-28 10:40:00,
2013-02-28 05:45:00,37.0,36.5,29.29,West,275,0.0,0.0,98,0.00,,,0.00,VWS V14.01,2013-02-28 10:45:00,
2013-02-28 05:50:00,37.0,36.5,29.29,West,275,0.0,0.0,98,0.00,,,0.00,VWS V14.01,2013-02-28 10:50:00,
2013-02-28 05:55:00,37.0,36.5,29.29,West,275,0.0,0.0,98,0.00,,,0.00,VWS V14.01,2013-02-28 10:55:00,
2013-02-28 06:00:00,37.0,36.5,29.29,West,275,0.0,0.0,98,0.00,,,0.00,VWS V14.01,2013-02-28 11:00:00,
2013-02-28 06:05:00,37.0,36.5,29.29,West,275,0.0,0.0,98,0.00,,,0.00,VWS V14.01,2013-02-28 11:05:00,
2013-02-28 06:10:00,37.0,36.5,29.29,West,275,0.0,0.0,98,0.00,,,0.00,VWS V14.01,2013-02-28 11:10:00,
2013-02-28 06:15:00,36.9,36.3,29.29,West,275,0.0,0.0,98,0.00,,,0.00,VWS V14.01,2013-02-28 11:15:00,
2013-02-28 06:20:00,36.9,36.3,29.29,West,275,0.0,0.0,98,0.00,,,0.00,VWS V14.01,2013-02-28 11:20:00,
2013-02-28 06:25:00,36.9,36.3,29.29,West,275,0.0,0.0,98,0.00,,,0.00,VWS V14.01,2013-02-28 11:25:00,
2013-02-28 06:30:00,36.9,36.3,29.29,West,275,0.0,0.0,98,0.00,,,0.00,VWS V14.01,2013-02-28 11:30:00,
2013-02-28 06:35:00,36.9,36.3,29.29,West,275,0.0,0.0,98,0.00,,,0.00,VWS V14.01,2013-02-28 11:35:00,
2013-02-28 06:40:00,36.9,36.3,29.29,West,275,0.0,0.0,98,0.00,,,0.00,VWS V14.01,2013-02-28 11:40:00,
2013-02-28 06:45:00,36.9,36.3,29.29,West,275,0.0,0.0,98,0.00,,,0.00,VWS V14.01,2013-02-28 11:45:00,
2013-02-28 06:50:00,36.9,36.3,29.29,West,275,0.0,0.0,98,0.00,,,0.00,VWS V14.01,2013-02-28 11:50:00,
2013-02-28 06:55:00,36.9,36.3,29.29,West,275,0.0,0.0,98,0.00,,,0.00,VWS V14.01,2013-02-28 11:55:00,
2013-02-28 07:00:00,36.9,36.3,29.29,West,275,0.0,0.0,98,0.00,,,0.00,VWS V14.01,2013-02-28 12:00:00,
2013-02-28 07:05:00,37.0,36.5,29.29,West,275,0.0,0.0,98,0.00,,,0.00,VWS V14.01,2013-02-28 12:05:00,
2013-02-28 07:10:00,37.2,36.7,29.29,West,275,0.0,0.0,98,0.00,,,0.00,VWS V14.01,2013-02-28 12:10:00,
2013-02-28 07:15:00,37.4,36.9,29.29,West,275,0.0,0.0,98,0.00,,,0.00,VWS V14.01,2013-02-28 12:15:00,
2013-02-28 07:20:00,37.6,37.1,29.29,West,275,0.0,0.0,98,0.00,,,0.00,VWS V14.01,2013-02-28 12:20:00,
2013-02-28 07:25:00,37.8,37.2,29.29,West,275,0.0,0.0,98,0.00,,,0.00,VWS V14.01,2013-02-28 12:25:00,
2013-02-28 07:30:00,37.8,37.2,29.29,West,275,0.0,0.0,98,0.00,,,0.00,VWS V14.01,2013-02-28 12:30:00,
2013-02-28 07:35:00,37.9,37.4,29.29,West,275,0.0,0.0,98,0.00,,,0.00,VWS V14.01,2013-02-28 12:35:00,
2013-02-28 07:40:00,37.9,37.4,29.29,West,275,0.0,0.0,98,0.00,,,0.00,VWS V14.01,2013-02-28 12:40:00,
2013-02-28 07:45:00,38.1,37.6,29.29,West,275,0.0,0.0,98,0.00,,,0.00,VWS V14.01,2013-02-28 12:45:00,
2013-02-28 07:50:00,38.5,38.0,29.29,West,275,0.0,0.0,98,0.00,,,0.00,VWS V14.01,2013-02-28 12:50:00,
2013-02-28 07:55:00,38.5,38.0,29.29,West,275,0.0,0.0,98,0.00,,,0.00,VWS V14.01,2013-02-28 12:55:00,
2013-02-28 08:00:00,38.7,38.2,29.29,West,275,0.0,0.0,98,0.00,,,0.00,VWS V14.01,2013-02-28 13:00:00,
2013-02-28 08:05:00,38.7,38.2,29.29,West,275,0.0,0.0,98,0.00,,,0.00,VWS V14.01,2013-02-28 13:05:00,
2013-02-28 08:10:00,38.7,38.2,29.29,West,275,0.0,0.0,98,0.00,,,0.00,VWS V14.01,2013-02-28 13:10:00,
2013-02-28 08:15:00,38.8,38.3,29.29,West,275,0.0,0.0,98,0.00,,,0.00,VWS V14.01,2013-02-28 13:15:00,
2013-02-28 08:20:00,38.8,38.3,29.29,West,275,0.0,0.0,98,0.00,,,0.00,VWS V14.01,2013-02-28 13:20:00,
2013-02-28 08:25:00,39.2,38.7,29.29,West,275,0.0,0.0,98,0.00,,,0.00,VWS V14.01,2013-02-28 13:25:00,
2013-02-28 08:30:00,39.4,38.9,29.29,West,263,0.0,0.0,98,0.00,,,0.00,VWS V14.01,2013-02-28 13:30:00,
2013-02-28 08:35:00,39.4,38.9,29.29,WSW,238,0.0,0.0,98,0.00,,,0.00,VWS V14.01,2013-02-28 13:35:00,
2013-02-28 08:40:00,39.4,38.9,29.29,WSW,238,0.0,0.0,98,0.00,,,0.00,VWS V14.01,2013-02-28 13:40:00,
2013-02-28 08:45:00,39.4,38.9,29.29,WSW,238,0.0,0.0,98,0.00,,,0.00,VWS V14.01,2013-02-28 13:45:00,
2013-02-28 08:50:00,39.4,38.9,29.29,SW,229,0.0,0.0,98,0.00,,,0.00,VWS V14.01,2013-02-28 13:50:00,
2013-02-28 08:55:00,39.4,38.9,29.29,WSW,241,0.0,0.0,98,0.00,,,0.00,VWS V14.01,2013-02-28 13:55:00,
2013-02-28 09:00:00,39.4,38.9,29.29,WSW,241,0.0,0.0,98,0.00,,,0.00,VWS V14.01,2013-02-28 14:00:00,
2013-02-28 09:05:00,39.4,38.9,29.29,NW,320,0.0,0.0,98,0.00,,,0.00,VWS V14.01,2013-02-28 14:05:00,
2013-02-28 09:10:00,39.6,39.0,29.32,NW,320,0.0,0.0,98,0.00,,,0.00,VWS V14.01,2013-02-28 14:10:00,
2013-02-28 09:15:00,39.7,39.2,29.32,West,266,0.0,0.0,98,0.00,,,0.00,VWS V14.01,2013-02-28 14:15:00,
2013-02-28 09:20:00,39.7,39.2,29.32,SSW,211,0.0,0.0,98,0.00,,,0.00,VWS V14.01,2013-02-28 14:20:00,
2013-02-28 09:25:00,39.7,39.2,29.29,WSW,257,0.0,0.0,98,0.00,,,0.00,VWS V14.01,2013-02-28 14:25:00,
2013-02-28 09:30:00,39.9,39.4,29.29,WSW,257,0.0,0.0,98,0.00,,,0.00,VWS V14.01,2013-02-28 14:30:00,
2013-02-28 09:35:00,39.9,39.4,29.29,WSW,250,0.0,0.0,98,0.00,,,0.00,VWS V14.01,2013-02-28 14:35:00,
2013-02-28 09:40:00,40.1,39.6,29.29,WSW,250,0.0,0.0,98,0.00,,,0.00,VWS V14.01,2013-02-28 14:40:00,
2013-02-28 09:45:00,40.5,39.9,29.29,WSW,250,0.0,0.0,98,0.00,,,0.00,VWS V14.01,2013-02-28 14:45:00,
2013-02-28 09:50:00,40.8,40.3,29.29,WSW,250,0.0,0.0,98,0.00,,,0.00,VWS V14.01,2013-02-28 14:50:00,
2013-02-28 09:55:00,41.0,40.5,29.29,WSW,250,0.0,0.0,98,0.00,,,0.00,VWS V14.01,2013-02-28 14:55:00,
2013-02-28 10:00:00,41.2,40.7,29.29,WSW,250,0.0,0.0,98,0.00,,,0.00,VWS V14.01,2013-02-28 15:00:00,
2013-02-28 10:05:00,41.4,40.8,29.29,WSW,250,0.0,0.0,98,0.00,,,0.00,VWS V14.01,2013-02-28 15:05:00,
2013-02-28 10:10:00,41.5,41.0,29.29,SW,215,0.0,0.0,98,0.00,,,0.00,VWS V14.01,2013-02-28 15:10:00,
2013-02-28 10:15:00,41.7,41.2,29.29,SW,215,0.0,0.0,98,0.00,,,0.00,VWS V14.01,2013-02-28 15:15:00,
2013-02-28 10:20:00,41.9,41.4,29.29,NNW,336,0.0,0.0,98,0.00,,,0.00,VWS V14.01,2013-02-28 15:20:00,
2013-02-28 10:25:00,41.9,41.4,29.29,NW,315,0.0,0.0,98,0.00,,,0.00,VWS V14.01,2013-02-28 15:25:00,
2013-02-28 10:30:00,41.9,41.4,29.29,NW,315,0.0,0.0,98,0.00,,,0.00,VWS V14.01,2013-02-28 15:30:00,
2013-02-28 10:35:00,42.1,41.6,29.29,NW,314,0.0,0.0,98,0.00,,,0.00,VWS V14.01,2013-02-28 15:35:00,
2013-02-28 10:40:00,42.3,41.7,29.29,NW,314,0.0,0.0,98,0.00,,,0.00,VWS V14.01,2013-02-28 15:40:00,
2013-02-28 10:45:00,42.4,41.9,29.29,NW,314,0.0,0.0,98,0.00,,,0.00,VWS V14.01,2013-02-28 15:45:00,
2013-02-28 10:50:00,42.4,41.9,29.29,SW,217,0.0,0.0,98,0.00,,,0.00,VWS V14.01,2013-02-28 15:50:00,
2013-02-28 10:55:00,42.6,42.1,29.29,SW,217,0.0,0.0,98,0.00,,,0.00,VWS V14.01,2013-02-28 15:55:00,
2013-02-28 11:00:00,43.0,42.5,29.29,SW,217,0.0,0.0,98,0.00,,,0.00,VWS V14.01,2013-02-28 16:00:00,
2013-02-28 11:05:00,43.2,42.6,29.29,SW,217,0.0,0.0,98,0.00,,,0.00,VWS V14.01,2013-02-28 16:05:00,
2013-02-28 11:10:00,43.3,42.8,29.29,SW,217,0.0,0.0,98,0.00,,,0.00,VWS V14.01,2013-02-28 16:10:00,
2013-02-28 11:15:00,43.5,43.0,29.29,SW,217,0.0,0.0,98,0.00,,,0.00,VWS V14.01,2013-02-28 16:15:00,
2013-02-28 11:20:00,43.5,43.0,29.29,SSW,207,0.0,0.0,98,0.00,,,0.00,VWS V14.01,2013-02-28 16:20:00,
2013-02-28 11:25:00,43.7,43.2,29.29,SSW,207,0.0,0.0,98,0.00,,,0.00,VWS V14.01,2013-02-28 16:25:00,
2013-02-28 11:30:00,43.7,43.2,29.29,NW,304,0.0,0.0,98,0.00,,,0.00,VWS V14.01,2013-02-28 16:30:00,
2013-02-28 11:35:00,44.1,43.5,29.29,SSW,211,0.0,0.0,98,0.00,,,0.00,VWS V14.01,2013-02-28 16:35:00,
2013-02-28 11:40:00,44.1,43.5,29.26,SSW,211,0.0,0.0,98,0.00,,,0.00,VWS V14.01,2013-02-28 16:40:00,
2013-02-28 11:45:00,44.4,43.9,29.26,SSW,211,0.0,0.0,98,0.00,,,0.00,VWS V14.01,2013-02-28 16:45:00,
2013-02-28 11:50:00,45.1,44.6,29.26,WSW,245,0.0,0.0,98,0.00,,,0.00,VWS V14.01,2013-02-28 16:50:00,
2013-02-28 11:55:00,45.1,44.6,29.26,WSW,245,0.0,0.0,98,0.00,,,0.00,VWS V14.01,2013-02-28 16:55:00,
2013-02-28 12:00:00,45.1,44.6,29.26,West,274,0.0,0.0,98,0.00,,,0.00,VWS V14.01,2013-02-28 17:00:00,
2013-02-28 12:05:00,45.1,44.6,29.26,West,268,0.0,0.0,98,0.00,,,0.00,VWS V14.01,2013-02-28 17:05:00,
2013-02-28 12:10:00,45.3,44.8,29.26,West,268,0.0,0.0,98,0.00,,,0.00,VWS V14.01,2013-02-28 17:10:00,
2013-02-28 12:15:00,45.3,44.8,29.26,SW,220,0.0,0.0,98,0.00,,,0.00,VWS V14.01,2013-02-28 17:15:00,
2013-02-28 12:20:00,45.1,44.3,29.26,SW,220,0.0,0.0,97,0.00,,,0.00,VWS V14.01,2013-02-28 17:20:00,
2013-02-28 12:25:00,45.0,44.2,29.26,SW,225,0.0,0.0,97,0.00,,,0.00,VWS V14.01,2013-02-28 17:25:00,
2013-02-28 12:30:00,44.1,42.7,29.26,NW,314,0.0,0.0,95,0.00,,,0.00,VWS V14.01,2013-02-28 17:30:00,
2013-02-28 12:35:00,44.6,42.1,29.26,NW,314,0.0,0.0,91,0.00,,,0.00,VWS V14.01,2013-02-28 17:35:00,
2013-02-28 12:40:00,44.6,42.1,29.26,SW,221,0.0,0.0,91,0.00,,,0.00,VWS V14.01,2013-02-28 17:40:00,
2013-02-28 12:45:00,44.6,41.0,29.23,SSW,197,0.0,0.0,87,0.00,,,0.00,VWS V14.01,2013-02-28 17:45:00,
2013-02-28 12:50:00,44.8,40.9,29.23,WSW,251,0.0,0.0,86,0.00,,,0.00,VWS V14.01,2013-02-28 17:50:00,
2013-02-28 12:55:00,44.6,39.5,29.23,WSW,251,0.0,0.0,82,0.00,,,0.00,VWS V14.01,2013-02-28 17:55:00,
2013-02-28 13:00:00,44.6,39.1,29.23,SW,216,0.0,0.0,81,0.00,,,0.00,VWS V14.01,2013-02-28 18:00:00,
2013-02-28 13:05:00,44.6,39.1,29.23,SW,216,0.0,0.0,81,0.00,,,0.00,VWS V14.01,2013-02-28 18:05:00,
2013-02-28 13:10:00,44.8,38.3,29.23,SW,226,0.0,0.0,78,0.00,,,0.00,VWS V14.01,2013-02-28 18:10:00,
2013-02-28 13:15:00,44.8,38.3,29.23,West,280,0.0,0.0,78,0.00,,,0.00,VWS V14.01,2013-02-28 18:15:00,
2013-02-28 13:20:00,45.0,37.2,29.23,WSW,248,0.0,0.0,74,0.00,,,0.00,VWS V14.01,2013-02-28 18:20:00,
2013-02-28 13:25:00,45.5,37.4,29.23,WSW,248,0.0,0.0,73,0.00,,,0.00,VWS V14.01,2013-02-28 18:25:00,
2013-02-28 13:30:00,45.9,37.0,29.23,WSW,248,0.0,0.0,71,0.00,,,0.00,VWS V14.01,2013-02-28 18:30:00,
2013-02-28 13:35:00,46.0,36.5,29.23,WSW,251,0.0,0.0,69,0.00,,,0.00,VWS V14.01,2013-02-28 18:35:00,
2013-02-28 13:40:00,46.0,36.5,29.23,WSW,251,0.0,0.0,69,0.00,,,0.00,VWS V14.01,2013-02-28 18:40:00,
2013-02-28 13:45:00,46.9,36.2,29.23,WSW,257,0.0,0.0,66,0.00,,,0.00,VWS V14.01,2013-02-28 18:45:00,
2013-02-28 13:50:00,46.9,35.0,29.23,SW,228,0.0,0.0,63,0.00,,,0.00,VWS V14.01,2013-02-28 18:50:00,
2013-02-28 13:55:00,46.9,35.0,29.23,SW,228,0.0,0.0,63,0.00,,,0.00,VWS V14.01,2013-02-28 18:55:00,
2013-02-28 14:00:00,46.9,35.4,29.21,WSW,248,0.0,0.0,64,0.00,,,0.04,VWS V14.01,2013-02-28 19:00:00,
2013-02-28 14:05:00,46.6,34.3,29.21,WSW,237,0.0,0.0,62,0.00,,,0.00,VWS V14.01,2013-02-28 19:05:00,
2013-02-28 14:10:00,46.0,33.8,29.21,WSW,237,0.0,0.0,62,0.00,,,0.00,VWS V14.01,2013-02-28 19:10:00,
2013-02-28 14:15:00,45.9,33.2,29.21,WNW,297,0.0,0.0,61,0.00,,,0.00,VWS V14.01,2013-02-28 19:15:00,
2013-02-28 14:20:00,45.9,33.2,29.21,WNW,297,0.0,0.0,61,0.00,,,0.00,VWS V14.01,2013-02-28 19:20:00,
2013-02-28 14:25:00,46.2,35.1,29.21,NW,309,0.0,0.0,65,0.00,,,0.00,VWS V14.01,2013-02-28 19:25:00,
2013-02-28 14:30:00,46.4,35.3,29.21,NW,309,0.0,0.0,65,0.00,,,0.00,VWS V14.01,2013-02-28 19:30:00,
2013-02-28 14:35:00,46.4,35.3,29.21,SE,127,0.0,0.0,65,0.00,,,0.00,VWS V14.01,2013-02-28 19:35:00,
2013-02-28 14:40:00,46.4,35.3,29.21,SE,127,0.0,0.0,65,0.00,,,0.00,VWS V14.01,2013-02-28 19:40:00,
2013-02-28 14:45:00,46.6,34.7,29.21,ESE,112,0.0,0.0,63,0.00,,,0.00,VWS V14.01,2013-02-28 19:45:00,
2013-02-28 14:50:00,46.2,33.9,29.21,ESE,112,0.0,0.0,62,0.00,,,0.00,VWS V14.01,2013-02-28 19:50:00,
2013-02-28 14:55:00,45.9,34.0,29.21,ESE,112,0.0,0.0,63,0.00,,,0.00,VWS V14.01,2013-02-28 19:55:00,
2013-02-28 15:00:00,45.9,34.0,29.21,ESE,112,0.0,0.0,63,0.00,,,0.00,VWS V14.01,2013-02-28 20:00:00,
2013-02-28 15:05:00,45.9,34.0,29.21,ESE,112,0.0,0.0,63,0.00,,,0.00,VWS V14.01,2013-02-28 20:05:00,
2013-02-28 15:10:00,46.4,34.9,29.21,ESE,112,0.0,0.0,64,0.00,,,0.00,VWS V14.01,2013-02-28 20:10:00,
2013-02-28 15:15:00,46.4,34.9,29.21,ESE,112,0.0,0.0,64,0.00,,,0.00,VWS V14.01,2013-02-28 20:15:00,
2013-02-28 15:20:00,46.4,34.9,29.21,ESE,112,0.0,0.0,64,0.00,,,0.00,VWS V14.01,2013-02-28 20:20:00,
2013-02-28 15:25:00,46.4,34.9,29.21,ESE,112,0.0,0.0,64,0.00,,,0.00,VWS V14.01,2013-02-28 20:25:00,
2013-02-28 15:30:00,46.4,34.9,29.21,ESE,112,0.0,0.0,64,0.00,,,0.00,VWS V14.01,2013-02-28 20:30:00,
2013-02-28 15:35:00,46.2,34.7,29.21,ESE,112,0.0,0.0,64,0.00,,,0.00,VWS V14.01,2013-02-28 20:35:00,
2013-02-28 15:40:00,46.0,34.6,29.18,ESE,112,0.0,0.0,64,0.00,,,0.00,VWS V14.01,2013-02-28 20:40:00,
2013-02-28 15:45:00,46.0,34.2,29.18,ESE,112,0.0,0.0,63,0.00,,,0.00,VWS V14.01,2013-02-28 20:45:00,
2013-02-28 15:50:00,46.0,34.2,29.18,ESE,112,0.0,0.0,63,0.00,,,0.00,VWS V14.01,2013-02-28 20:50:00,
2013-02-28 15:55:00,45.9,34.0,29.18,ESE,112,0.0,0.0,63,0.00,,,0.00,VWS V14.01,2013-02-28 20:55:00,
2013-02-28 16:00:00,45.7,33.4,29.21,ESE,112,0.0,0.0,62,0.00,,,0.00,VWS V14.01,2013-02-28 21:00:00,
2013-02-28 16:05:00,45.7,33.4,29.21,ESE,112,0.0,0.0,62,0.00,,,0.00,VWS V14.01,2013-02-28 21:05:00,
2013-02-28 16:09:00,45.5,33.7,29.21,ESE,112,0.0,0.0,63,0.00,,,0.00,VWS V14.01,2013-02-28 21:09:00,
2013-02-28 16:14:00,45.5,33.7,29.21,ESE,112,0.0,0.0,63,0.00,,,0.00,VWS V14.01,2013-02-28 21:14:00,
2013-02-28 16:19:00,45.5,33.7,29.21,ESE,112,0.0,0.0,63,0.00,,,0.00,VWS V14.01,2013-02-28 21:19:00,
2013-02-28 16:24:00,45.5,33.7,29.21,ESE,112,0.0,0.0,63,0.00,,,0.00,VWS V14.01,2013-02-28 21:24:00,
2013-02-28 16:30:00,45.1,33.3,29.21,ESE,112,0.0,0.0,63,0.00,,,0.00,VWS V14.01,2013-02-28 21:30:00,
2013-02-28 16:34:00,45.0,33.5,29.21,ESE,112,0.0,0.0,64,0.00,,,0.00,VWS V14.01,2013-02-28 21:34:00,
2013-02-28 16:39:00,44.8,33.4,29.21,ESE,112,0.0,0.0,64,0.00,,,0.00,VWS V14.01,2013-02-28 21:39:00,
2013-02-28 16:44:00,44.6,33.6,29.21,ESE,112,0.0,0.0,65,0.00,,,0.00,VWS V14.01,2013-02-28 21:44:00,
2013-02-28 16:49:00,44.4,33.8,29.21,ESE,112,0.0,0.0,66,0.00,,,0.00,VWS V14.01,2013-02-28 21:49:00,
2013-02-28 16:54:00,44.4,33.8,29.21,ESE,112,0.0,0.0,66,0.00,,,0.00,VWS V14.01,2013-02-28 21:54:00,
2013-02-28 16:59:00,44.4,33.8,29.21,ESE,112,0.0,0.0,66,0.00,,,0.00,VWS V14.01,2013-02-28 21:59:00,
2013-02-28 17:04:00,44.1,33.4,29.21,ESE,112,0.0,0.0,66,0.00,,,0.00,VWS V14.01,2013-02-28 22:04:00,
2013-02-28 17:09:00,44.1,33.4,29.21,ESE,112,0.0,0.0,66,0.00,,,0.00,VWS V14.01,2013-02-28 22:09:00,
2013-02-28 17:14:00,43.7,33.5,29.21,ESE,112,0.0,0.0,67,0.00,,,0.00,VWS V14.01,2013-02-28 22:14:00,
2013-02-28 17:19:00,43.5,33.3,29.21,ESE,112,0.0,0.0,67,0.00,,,0.00,VWS V14.01,2013-02-28 22:19:00,
2013-02-28 17:24:00,43.5,33.3,29.21,ESE,112,0.0,0.0,67,0.00,,,0.00,VWS V14.01,2013-02-28 22:24:00,
2013-02-28 17:29:00,43.3,33.1,29.21,ESE,112,0.0,0.0,67,0.00,,,0.00,VWS V14.01,2013-02-28 22:29:00,
2013-02-28 17:34:00,43.3,33.1,29.21,ESE,112,0.0,0.0,67,0.00,,,0.00,VWS V14.01,2013-02-28 22:34:00,
2013-02-28 17:39:00,43.0,33.2,29.21,ESE,112,0.0,0.0,68,0.00,,,0.00,VWS V14.01,2013-02-28 22:39:00,
2013-02-28 17:44:00,42.8,33.0,29.21,ESE,112,0.0,0.0,68,0.00,,,0.00,VWS V14.01,2013-02-28 22:44:00,
2013-02-28 17:49:00,42.8,33.0,29.21,ESE,112,0.0,0.0,68,0.00,,,0.00,VWS V14.01,2013-02-28 22:49:00,
2013-02-28 17:54:00,42.4,33.0,29.21,ESE,112,0.0,0.0,69,0.00,,,0.00,VWS V14.01,2013-02-28 22:54:00,
2013-02-28 17:59:00,42.3,33.2,29.21,ESE,112,0.0,0.0,70,0.00,,,0.00,VWS V14.01,2013-02-28 22:59:00,
2013-02-28 18:04:00,42.3,33.2,29.21,ESE,112,0.0,0.0,70,0.00,,,0.00,VWS V14.01,2013-02-28 23:04:00,
2013-02-28 18:09:00,42.1,33.0,29.21,ESE,112,0.0,0.0,70,0.00,,,0.00,VWS V14.01,2013-02-28 23:09:00,
2013-02-28 18:14:00,42.1,33.0,29.21,ESE,112,0.0,0.0,70,0.00,,,0.00,VWS V14.01,2013-02-28 23:14:00,
2013-02-28 18:19:00,41.7,33.0,29.21,ESE,112,0.0,0.0,71,0.00,,,0.00,VWS V14.01,2013-02-28 23:19:00,
2013-02-28 18:24:00,41.5,32.8,29.21,ESE,112,0.0,0.0,71,0.00,,,0.00,VWS V14.01,2013-02-28 23:24:00,
2013-02-28 18:29:00,41.5,32.8,29.21,ESE,112,0.0,0.0,71,0.00,,,0.00,VWS V14.01,2013-02-28 23:29:00,
2013-02-28 18:34:00,41.5,32.8,29.21,ESE,112,0.0,0.0,71,0.00,,,0.00,VWS V14.01,2013-02-28 23:34:00,
2013-02-28 18:39:00,41.0,32.7,29.21,ESE,112,0.0,0.0,72,0.00,,,0.00,VWS V14.01,2013-02-28 23:39:00,
2013-02-28 18:44:00,40.5,32.2,29.21,ESE,112,0.0,0.0,72,0.00,,,0.00,VWS V14.01,2013-02-28 23:44:00,
2013-02-28 18:49:00,40.1,32.2,29.21,ESE,112,0.0,0.0,73,0.00,,,0.00,VWS V14.01,2013-02-28 23:49:00,
2013-02-28 18:54:00,40.1,32.2,29.21,ESE,112,0.0,0.0,73,0.00,,,0.00,VWS V14.01,2013-02-28 23:54:00,
2013-02-28 18:59:00,40.1,32.2,29.21,ESE,112,0.0,0.0,73,0.00,,,0.00,VWS V14.01,2013-02-28 23:59:00,
2013-02-28 19:04:00,38.8,31.3,29.21,ESE,112,0.0,0.0,74,0.00,,,0.00,VWS V14.01,2013-03-01 00:04:00,
2013-02-28 19:09:00,38.8,31.6,29.21,ESE,112,0.0,0.0,75,0.00,,,0.00,VWS V14.01,2013-03-01 00:09:00,
2013-02-28 19:14:00,38.5,31.3,29.21,ESE,112,0.0,0.0,75,0.00,,,0.00,VWS V14.01,2013-03-01 00:14:00,
2013-02-28 19:19:00,38.3,31.4,29.21,ESE,112,0.0,0.0,76,0.00,,,0.00,VWS V14.01,2013-03-01 00:19:00,
2013-02-28 19:24:00,38.3,31.4,29.21,ESE,112,0.0,0.0,76,0.00,,,0.00,VWS V14.01,2013-03-01 00:24:00,
2013-02-28 19:29:00,37.8,30.9,29.21,ESE,112,0.0,0.0,76,0.00,,,0.00,VWS V14.01,2013-03-01 00:29:00,
2013-02-28 19:34:00,37.4,30.5,29.21,ESE,112,0.0,0.0,76,0.00,,,0.00,VWS V14.01,2013-03-01 00:34:00,
2013-02-28 19:39:00,37.2,30.7,29.21,ESE,112,0.0,0.0,77,0.00,,,0.00,VWS V14.01,2013-03-01 00:39:00,
2013-02-28 19:44:00,36.9,30.3,29.21,ESE,112,0.0,0.0,77,0.00,,,0.00,VWS V14.01,2013-03-01 00:44:00,
2013-02-28 19:49:00,36.7,30.2,29.21,ESE,112,0.0,0.0,77,0.00,,,0.00,VWS V14.01,2013-03-01 00:49:00,
2013-02-28 19:54:00,36.5,30.3,29.21,ESE,112,0.0,0.0,78,0.00,,,0.00,VWS V14.01,2013-03-01 00:54:00,
2013-02-28 19:59:00,36.3,30.1,29.21,ESE,112,0.0,0.0,78,0.00,,,0.00,VWS V14.01,2013-03-01 00:59:00,
2013-02-28 20:04:00,36.1,30.0,29.21,ESE,112,0.0,0.0,78,0.00,,,0.00,VWS V14.01,2013-03-01 01:04:00,
2013-02-28 20:09:00,36.0,29.8,29.21,ESE,112,0.0,0.0,78,0.00,,,0.00,VWS V14.01,2013-03-01 01:09:00,
2013-02-28 20:14:00,35.8,29.9,29.21,ESE,112,0.0,0.0,79,0.00,,,0.00,VWS V14.01,2013-03-01 01:14:00,
2013-02-28 20:19:00,35.6,29.7,29.21,ESE,112,0.0,0.0,79,0.00,,,0.00,VWS V14.01,2013-03-01 01:19:00,
2013-02-28 20:24:00,35.6,29.7,29.23,ESE,112,0.0,0.0,79,0.00,,,0.00,VWS V14.01,2013-03-01 01:24:00,
2013-02-28 20:29:00,35.4,29.9,29.23,ESE,112,0.0,0.0,80,0.00,,,0.00,VWS V14.01,2013-03-01 01:29:00,
2013-02-28 20:34:00,35.2,29.7,29.23,ESE,112,0.0,0.0,80,0.00,,,0.00,VWS V14.01,2013-03-01 01:34:00,
2013-02-28 20:39:00,35.2,29.7,29.23,ESE,112,0.0,0.0,80,0.00,,,0.00,VWS V14.01,2013-03-01 01:39:00,
2013-02-28 20:44:00,35.2,30.0,29.23,ESE,112,0.0,0.0,81,0.00,,,0.00,VWS V14.01,2013-03-01 01:44:00,
2013-02-28 20:49:00,35.2,30.0,29.23,ESE,112,0.0,0.0,81,0.00,,,0.00,VWS V14.01,2013-03-01 01:49:00,
2013-02-28 20:54:00,35.1,29.8,29.23,ESE,112,0.0,0.0,81,0.00,,,0.00,VWS V14.01,2013-03-01 01:54:00,
2013-02-28 20:59:00,34.9,29.6,29.23,ESE,112,0.0,0.0,81,0.00,,,0.00,VWS V14.01,2013-03-01 01:59:00,
2013-02-28 21:04:00,34.9,30.0,29.23,ESE,112,0.0,0.0,82,0.00,,,0.00,VWS V14.01,2013-03-01 02:04:00,
2013-02-28 21:09:00,34.5,29.6,29.21,ESE,112,0.0,0.0,82,0.00,,,0.00,VWS V14.01,2013-03-01 02:09:00,
2013-02-28 21:14:00,34.5,29.6,29.21,ESE,112,0.0,0.0,82,0.00,,,0.00,VWS V14.01,2013-03-01 02:14:00,
2013-02-28 21:19:00,34.3,29.4,29.21,ESE,112,0.0,0.0,82,0.00,,,0.00,VWS V14.01,2013-03-01 02:19:00,
2013-02-28 21:24:00,34.3,29.4,29.21,ESE,112,0.0,0.0,82,0.00,,,0.00,VWS V14.01,2013-03-01 02:24:00,
2013-02-28 21:29:00,34.2,29.2,29.21,ESE,112,0.0,0.0,82,0.00,,,0.00,VWS V14.01,2013-03-01 02:29:00,
2013-02-28 21:34:00,34.2,29.2,29.21,ESE,112,0.0,0.0,82,0.00,,,0.00,VWS V14.01,2013-03-01 02:34:00,
2013-02-28 21:39:00,34.0,29.1,29.21,ESE,112,0.0,0.0,82,0.00,,,0.00,VWS V14.01,2013-03-01 02:39:00,
2013-02-28 21:44:00,33.8,29.2,29.21,ESE,112,0.0,0.0,83,0.00,,,0.00,VWS V14.01,2013-03-01 02:44:00,
2013-02-28 21:49:00,33.8,29.2,29.21,ESE,112,0.0,0.0,83,0.00,,,0.00,VWS V14.01,2013-03-01 02:49:00,
2013-02-28 21:54:00,33.6,29.0,29.21,ESE,112,0.0,0.0,83,0.00,,,0.00,VWS V14.01,2013-03-01 02:54:00,
2013-02-28 21:59:00,33.6,29.0,29.21,ESE,112,0.0,0.0,83,0.00,,,0.00,VWS V14.01,2013-03-01 02:59:00,
2013-02-28 22:04:00,33.6,29.3,29.21,ESE,112,0.0,0.0,84,0.00,,,0.00,VWS V14.01,2013-03-01 03:04:00,
2013-02-28 22:09:00,33.4,29.1,29.21,ESE,112,0.0,0.0,84,0.00,,,0.00,VWS V14.01,2013-03-01 03:09:00,
2013-02-28 22:14:00,33.4,29.1,29.21,ESE,112,0.0,0.0,84,0.00,,,0.00,VWS V14.01,2013-03-01 03:14:00,
2013-02-28 22:19:00,33.3,29.0,29.21,ESE,112,0.0,0.0,84,0.00,,,0.00,VWS V14.01,2013-03-01 03:19:00,
2013-02-28 22:24:00,33.3,29.0,29.21,ESE,112,0.0,0.0,84,0.00,,,0.00,VWS V14.01,2013-03-01 03:24:00,
2013-02-28 22:29:00,33.3,29.0,29.21,ESE,112,0.0,0.0,84,0.00,,,0.00,VWS V14.01,2013-03-01 03:29:00,
2013-02-28 22:34:00,33.3,29.0,29.21,ESE,112,0.0,0.0,84,0.00,,,0.00,VWS V14.01,2013-03-01 03:34:00,
2013-02-28 22:39:00,33.3,29.2,29.21,ESE,112,0.0,0.0,85,0.00,,,0.00,VWS V14.01,2013-03-01 03:39:00,
2013-02-28 22:44:00,33.3,29.2,29.21,ESE,112,0.0,0.0,85,0.00,,,0.00,VWS V14.01,2013-03-01 03:44:00,
2013-02-28 22:49:00,33.3,29.2,29.21,ESE,112,0.0,0.0,85,0.00,,,0.00,VWS V14.01,2013-03-01 03:49:00,
2013-02-28 22:54:00,33.4,29.4,29.21,ESE,112,0.0,0.0,85,0.00,,,0.00,VWS V14.01,2013-03-01 03:54:00,
2013-02-28 22:59:00,33.4,29.4,29.21,ESE,112,0.0,0.0,85,0.00,,,0.00,VWS V14.01,2013-03-01 03:59:00,
2013-02-28 23:04:00,33.4,29.4,29.21,ESE,112,0.0,0.0,85,0.00,,,0.00,VWS V14.01,2013-03-01 04:04:00,
2013-02-28 23:09:00,33.4,29.4,29.21,ESE,112,0.0,0.0,85,0.00,,,0.00,VWS V14.01,2013-03-01 04:09:00,
2013-02-28 23:14:00,33.6,29.9,29.21,ESE,112,0.0,0.0,86,0.00,,,0.00,VWS V14.01,2013-03-01 04:14:00,
2013-02-28 23:19:00,33.8,30.1,29.21,ESE,112,0.0,0.0,86,0.00,,,0.00,VWS V14.01,2013-03-01 04:19:00,
2013-02-28 23:24:00,33.8,30.1,29.21,ESE,112,0.0,0.0,86,0.00,,,0.00,VWS V14.01,2013-03-01 04:24:00,
2013-02-28 23:29:00,34.5,31.1,29.21,ESE,112,0.0,0.0,87,0.00,,,0.00,VWS V14.01,2013-03-01 04:29:00,
2013-02-28 23:34:00,34.9,31.4,29.21,ESE,112,0.0,0.0,87,0.00,,,0.00,VWS V14.01,2013-03-01 04:34:00,
2013-02-28 23:39:00,34.9,31.4,29.21,ESE,112,0.0,0.0,87,0.00,,,0.00,VWS V14.01,2013-03-01 04:39:00,
2013-02-28 23:44:00,34.9,31.4,29.21,ESE,112,0.0,0.0,87,0.00,,,0.00,VWS V14.01,2013-03-01 04:44:00,
2013-02-28 23:49:00,34.9,31.4,29.21,ESE,112,0.0,0.0,87,0.00,,,0.00,VWS V14.01,2013-03-01 04:49:00,
2013-02-28 23:54:00,36.9,33.4,29.21,ESE,121,0.0,0.0,87,0.00,,,0.00,VWS V14.01,2013-03-01 04:54:00,
2013-02-28 23:59:00,36.9,33.4,29.21,ESE,121,0.0,0.0,87,0.00,,,0.00,VWS V14.01,2013-03-01 04:59:00,